GW3250 Weather Reports


Display with metric or nautical units.
time (UTC)temp
F
wind
direction
speed
MPH
gust
MPH
rain 1hr
in
rain 24hr
in
rain mn
in
humidity
%
barometer
mb
20260504191926 69 188 1.0 2.0 0.00 0.00 0.00 37 1006.1
20260504191424 68 231 2.0 3.0 0.00 0.00 0.00 35 1006.0
20260504190919 69 219 2.0 3.0 0.00 0.00 0.00 34 1006.3
20260504190414 69 358 1.0 1.0 0.00 0.00 0.00 36 1006.4
20260504185911 70 244 3.0 3.0 0.00 0.00 0.00 34 1006.2
20260504185409 68 227 3.0 4.0 0.00 0.00 0.00 36 1006.4
20260504184904 71 216 2.0 2.0 0.00 0.00 0.00 34 1006.3
20260504184400 68 213 1.0 1.0 0.00 0.00 0.00 38 1006.2
20260504183856 69 218 2.0 3.0 0.00 0.00 0.00 35 1006.4
20260504183354 69 86 3.0 6.0 0.00 0.00 0.00 33 1006.4
20260504182851 69 211 0.0 1.0 0.00 0.00 0.00 35 1006.3
20260504182349 71 328 6.0 7.0 0.00 0.00 0.00 34 1006.5
20260504181845 71 220 4.0 8.0 0.00 0.00 0.00 37 1006.7
20260504181343 69 222 1.0 2.0 0.00 0.00 0.00 36 1006.5
20260504180841 71 261 3.0 4.0 0.00 0.00 0.00 34 1006.7
20260504180339 70 233 4.0 4.0 0.00 0.00 0.00 34 1006.4
20260504175838 69 250 4.0 6.0 0.00 0.00 0.00 39 1006.5
20260504175334 69 212 1.0 2.0 0.00 0.00 0.00 37 1006.8
20260504174832 69 245 4.0 4.0 0.00 0.00 0.00 34 1006.7
20260504174329 68 43 2.0 4.0 0.00 0.00 0.00 36 1007.0
20260504173826 69 231 4.0 4.0 0.00 0.00 0.00 34 1006.8
20260504173323 70 343 2.0 3.0 0.00 0.00 0.00 34 1007.0
20260504172820 70 205 2.0 2.0 0.00 0.00 0.00 33 1007.2
20260504172316 70 210 4.0 8.0 0.00 0.00 0.00 33 1006.9
20260504171812 68 199 4.0 7.0 0.00 0.00 0.00 36 1006.9
20260504171310 69 357 6.0 8.0 0.00 0.00 0.00 36 1007.2
20260504170807 69 171 3.0 3.0 0.00 0.00 0.00 34 1007.3
20260504170304 68 345 5.0 7.0 0.00 0.00 0.00 38 1007.2
20260504160222 62 191 3.0 4.0 0.00 0.00 0.00 38 1008.3
20260504150653 63 262 3.0 4.0 0.00 0.00 0.00 42 1008.8
20260504150150 62 227 2.0 3.0 0.00 0.00 0.00 41 1008.8
20260504141119 57 219 3.0 4.0 0.00 0.00 0.00 46 1009.0
20260504140615 58 223 2.0 3.0 0.00 0.00 0.00 46 1009.0
20260504140111 58 279 3.0 4.0 0.00 0.00 0.00 46 1009.0
20260504130539 56 30 0.0 1.0 0.00 0.00 0.00 51 1009.8
20260504110427 42 148 0.0 0.0 0.00 0.00 0.00 76 1009.9
20260504100344 41 147 0.0 1.0 0.00 0.00 0.00 74 1009.4
20260504081737 40 178 0.0 0.0 0.00 0.00 0.00 76 1009.6
20260504081233 40 178 0.0 0.0 0.00 0.00 0.00 75 1009.6
20260504080730 39 157 0.0 0.0 0.00 0.00 0.00 76 1009.5
20260504080226 39 157 1.0 1.0 0.00 0.00 0.00 77 1009.5
20260504070153 39 157 0.0 0.0 0.00 0.00 0.00 75 1009.4
20260504045618 42 157 1.0 1.0 0.00 0.00 0.00 67 1009.4
20260504045112 42 157 1.0 1.0 0.00 0.00 0.00 67 1009.4
20260504044611 42 157 1.0 1.0 0.00 0.00 0.00 67 1009.4
20260504044107 42 157 0.0 0.0 0.00 0.00 0.00 69 1009.2
20260504043604 40 157 1.0 1.0 0.00 0.00 0.00 72 1009.3
20260504043101 40 157 1.0 1.0 0.00 0.00 0.00 73 1009.2
20260504042558 40 157 2.0 2.0 0.00 0.00 0.00 74 1009.3
20260504042055 39 157 0.0 0.0 0.00 0.00 0.00 75 1009.0
20260504041551 39 157 0.0 0.0 0.00 0.00 0.00 76 1008.9
20260504041048 39 157 0.0 0.0 0.00 0.00 0.00 76 1009.1
20260504040545 39 157 0.0 0.0 0.00 0.00 0.00 76 1009.0
20260504040041 39 157 1.0 1.0 0.00 0.00 0.00 76 1009.0
20260504035538 40 157 0.0 1.0 0.00 0.00 0.00 75 1008.9
20260504035034 40 157 0.0 0.0 0.00 0.00 0.00 75 1008.8
20260504034533 40 157 0.0 1.0 0.00 0.00 0.00 75 1009.0
20260504034029 40 157 0.0 1.0 0.00 0.00 0.00 76 1008.9
20260504033528 40 157 1.0 1.0 0.00 0.00 0.00 76 1008.9
20260504033024 40 157 0.0 0.0 0.00 0.00 0.00 75 1008.9
20260504032521 40 157 1.0 1.0 0.00 0.00 0.00 75 1008.9
20260504032018 40 157 0.0 1.0 0.00 0.00 0.00 74 1008.9
20260504031515 40 157 0.0 1.0 0.00 0.00 0.00 75 1009.0
20260504031011 41 157 0.0 0.0 0.00 0.00 0.00 74 1008.9
20260504030509 41 157 0.0 1.0 0.00 0.00 0.00 73 1008.8
20260504030004 41 157 0.0 0.0 0.00 0.00 0.00 74 1009.1
20260504025501 41 157 1.0 1.0 0.00 0.00 0.00 74 1009.0
20260504024958 41 157 0.0 0.0 0.00 0.00 0.00 73 1009.2
20260504024455 41 157 0.0 1.0 0.00 0.00 0.00 73 1008.9
20260504023953 41 157 1.0 1.0 0.00 0.00 0.00 72 1008.9
20260504023449 41 157 0.0 1.0 0.00 0.00 0.00 73 1009.1
20260504022944 41 157 0.0 0.0 0.00 0.00 0.00 71 1009.0
20260504022441 41 157 1.0 1.0 0.00 0.00 0.00 70 1009.1
20260504021938 42 157 0.0 1.0 0.00 0.00 0.00 69 1009.0
20260504021435 42 157 1.0 1.0 0.00 0.00 0.00 68 1009.2
20260504020932 42 157 1.0 1.0 0.00 0.00 0.00 68 1009.0
20260504020429 42 157 1.0 1.0 0.00 0.00 0.00 68 1009.2
20260504015925 42 157 0.0 1.0 0.00 0.00 0.00 67 1009.1
20260504015421 42 157 1.0 1.0 0.00 0.00 0.00 67 1009.2
20260504014917 42 157 0.0 0.0 0.00 0.00 0.00 69 1009.0
20260504014414 43 157 0.0 0.0 0.00 0.00 0.00 69 1009.0
20260504013911 42 187 1.0 1.0 0.00 0.00 0.00 67 1009.2
20260504013409 43 187 0.0 0.0 0.00 0.00 0.00 66 1009.1
20260504012905 43 187 0.0 1.0 0.00 0.00 0.00 65 1009.0
20260504012403 43 187 0.0 1.0 0.00 0.00 0.00 65 1008.9
20260504011900 43 187 0.0 1.0 0.00 0.00 0.00 65 1008.9
20260504011357 44 187 0.0 0.0 0.00 0.00 0.00 65 1008.7
20260504010853 44 187 1.0 1.0 0.00 0.00 0.00 64 1008.6
20260504010349 44 187 1.0 1.0 0.00 0.00 0.00 63 1008.9
20260504005845 44 187 0.0 0.0 0.00 0.00 0.00 63 1008.8
20260504005342 45 187 0.0 1.0 0.00 0.00 0.00 63 1008.6
20260504004839 45 187 1.0 1.0 0.00 0.00 0.00 64 1008.7
20260504004337 45 187 0.0 1.0 0.00 0.00 0.00 63 1008.9
20260504003833 46 187 0.0 1.0 0.00 0.00 0.00 61 1008.6
20260504003330 46 187 0.0 0.0 0.00 0.00 0.00 61 1008.5
20260504002827 46 187 0.0 0.0 0.00 0.00 0.00 59 1008.5
20260504002324 47 187 0.0 0.0 0.00 0.00 0.00 58 1008.4
20260504001822 47 187 0.0 0.0 0.00 0.00 0.00 57 1008.2
20260504001319 48 187 0.0 1.0 0.00 0.00 0.00 56 1008.4
20260504000815 48 187 0.0 0.0 0.00 0.00 0.00 55 1008.2
20260504000312 49 188 0.0 1.0 0.00 0.00 0.00 53 1008.2
20260503235810 49 189 0.0 1.0 0.00 0.00 0.00 51 1008.4
20260503235307 50 189 0.0 0.0 0.00 0.00 0.00 50 1008.2
20260503234805 51 190 0.0 0.0 0.00 0.00 0.00 50 1008.0
20260503234303 51 178 1.0 1.0 0.00 0.00 0.00 48 1008.2
20260503233800 52 194 1.0 1.0 0.00 0.00 0.00 47 1007.9
20260503233255 52 212 2.0 3.0 0.00 0.00 0.00 46 1008.0
20260503232753 52 198 1.0 1.0 0.00 0.00 0.00 46 1007.9
20260503232250 52 220 2.0 2.0 0.00 0.00 0.00 45 1008.1
20260503231748 52 50 3.0 4.0 0.00 0.00 0.00 44 1008.1
20260503231245 53 203 2.0 2.0 0.00 0.00 0.00 45 1007.8
20260503230740 53 217 3.0 3.0 0.00 0.00 0.00 44 1007.9
20260503230238 53 153 3.0 4.0 0.00 0.00 0.00 44 1008.0
20260503225736 53 192 1.0 2.0 0.00 0.00 0.00 43 1008.0
20260503225235 53 238 4.0 7.0 0.00 0.00 0.00 42 1007.8
20260503224732 54 257 3.0 4.0 0.00 0.00 0.00 42 1007.8
20260503224230 54 156 1.0 1.0 0.00 0.00 0.00 42 1007.9
20260503223728 54 83 4.0 6.0 0.00 0.00 0.00 40 1007.9
20260503223225 54 271 6.0 9.0 0.00 0.00 0.00 40 1007.6
20260503222721 54 260 3.0 4.0 0.00 0.00 0.00 41 1008.0
20260503222219 54 205 1.0 1.0 0.00 0.00 0.00 41 1007.8
20260503221718 54 260 5.0 7.0 0.00 0.00 0.00 38 1007.6
20260503221215 54 229 3.0 6.0 0.00 0.00 0.00 40 1007.6
20260503220711 54 24 1.0 1.0 0.00 0.00 0.00 39 1007.5
20260503220208 54 203 6.0 8.0 0.00 0.00 0.00 37 1007.6
20260503215705 55 199 1.0 2.0 0.00 0.00 0.00 38 1007.6
20260503215202 55 179 2.0 4.0 0.00 0.00 0.00 38 1007.3
20260503214700 55 228 6.0 8.0 0.00 0.00 0.00 36 1007.4
20260503214155 56 352 4.0 6.0 0.00 0.00 0.00 35 1007.4
20260503213649 57 261 7.0 9.0 0.00 0.00 0.00 36 1007.2
20260503213146 56 268 6.0 8.0 0.00 0.00 0.00 35 1007.4
20260503212643 55 248 3.0 4.0 0.00 0.00 0.00 35 1007.3
20260503212140 56 237 4.0 4.0 0.00 0.00 0.00 35 1007.2
20260503211638 56 203 2.0 3.0 0.00 0.00 0.00 37 1007.3
20260503211133 57 222 6.0 7.0 0.00 0.00 0.00 33 1007.5
20260503210630 56 268 2.0 3.0 0.00 0.00 0.00 35 1007.0
20260503210126 56 221 2.0 3.0 0.00 0.00 0.00 35 1007.3
20260503205622 56 249 4.0 6.0 0.00 0.00 0.00 35 1007.2
20260503205119 56 199 2.0 3.0 0.00 0.00 0.00 35 1007.2
20260503204616 55 183 4.0 4.0 0.00 0.00 0.00 34 1007.3
20260503204113 57 216 7.0 9.0 0.00 0.00 0.00 34 1007.4
20260503203610 56 241 3.0 6.0 0.00 0.00 0.00 35 1007.2
20260503203107 58 239 4.0 6.0 0.00 0.00 0.00 34 1007.0
20260503202605 57 261 5.0 6.0 0.00 0.00 0.00 34 1007.2
20260503202103 57 61 4.0 4.0 0.00 0.00 0.00 33 1007.4
20260503201600 57 212 4.0 6.0 0.00 0.00 0.00 34 1007.5
20260503201057 55 62 4.0 7.0 0.00 0.00 0.00 34 1007.9
20260503200548 55 278 2.0 4.0 0.00 0.00 0.00 37 1007.5
20260503200044 56 313 6.0 8.0 0.00 0.00 0.00 33 1007.6
20260503195542 57 239 9.0 10.0 0.00 0.00 0.00 32 1007.5
20260503195038 57 277 4.0 7.0 0.00 0.00 0.00 35 1007.5
20260503194536 56 188 8.0 10.0 0.00 0.00 0.00 35 1007.6
20260503194035 56 239 2.0 3.0 0.00 0.00 0.00 36 1007.9
20260503193532 57 260 4.0 4.0 0.00 0.00 0.00 32 1007.6
20260503193027 56 204 9.0 15.0 0.00 0.00 0.00 34 1007.7
20260503192524 55 174 3.0 4.0 0.00 0.00 0.00 34 1007.8